Armorel, AR

9:19 PM CDT on July 27, 2016 (GMT -0500)
Blytheville Municipal

Weather History for KHKA - March, 2013

Change the Weather History Date:

Sunday, March 10, 2013

  Actual Average Record
Temperature  
Mean Temperature 57 °F -  
Max Temperature 64 °F 59 °F 79 °F (1974)
Min Temperature 48 °F 39 °F 19 °F (1932)
Degree Days  
Heating Degree Days 8    
Growing Degree Days 7 (Base 50)    
Moisture  
Dew Point 49 °F    
Average Humidity 84    
Maximum Humidity 100    
Minimum Humidity 49    
Precipitation  
Precipitation 0.44 in - - ()
Sea Level Pressure  
Sea Level Pressure 29.81 in    
Wind  
Wind Speed 14 mph (South)    
Max Wind Speed 29 mph    
Max Gust Speed 37 mph    
Visibility 9 miles    
Events Rain    
Averages and records for this station are not official NWS values.
T = Trace of Precipitation, MM = Missing Value Source: NWS Daily Summary

Daily Weather History Graph

Daily Weather History Graph

Search for Another Location

Airport or City:

Trip Planner

Search our weather history database for the weather conditions in past years. The results will help you decide how hot, cold, wet, or windy it might be!

Date:

Astronomy

Mar. 10, 2013 Rise Set
Actual Time 7:16 AM CDT 7:02 PM CDT
Civil Twilight 6:51 AM CDT 7:28 PM CDT
Nautical Twilight 6:21 AM CDT 7:57 PM CDT
Astronomical Twilight 5:51 AM CDT 8:27 PM CDT
Moon 6:15 AM CDT (3/10) 6:10 PM CDT (3/10)
Length of Visible Light 12h 36m
Length of Day
11h 45m
Waning Crescent, 2% of the Moon is Illuminated
Mar 10
Waning Crescent
Mar 11
New
Mar 19
First Quarter
Mar 27
Full
Apr 2
Last Quarter

Hourly Weather History & Observations

Time (CDT) Temp. Dew Point Humidity Pressure Visibility Wind Dir Wind Speed Gust Speed Precip Events Conditions
12:53 AM 57.0 °F 39.0 °F 51% 29.92 in 10.0 mi SSE 10.4 mph - N/A   Clear
1:53 AM 59.0 °F 39.9 °F 49% 29.90 in 10.0 mi South 13.8 mph - N/A   Clear
3:53 AM 60.1 °F 42.1 °F 51% 29.88 in 10.0 mi South 15.0 mph - N/A   Clear
4:53 AM 60.1 °F 44.1 °F 55% 29.85 in 10.0 mi South 19.6 mph - N/A   Clear
5:53 AM 59.0 °F 45.0 °F 60% 29.86 in 10.0 mi SSE 15.0 mph 24.2 mph N/A   Partly Cloudy
7:53 AM 57.9 °F 48.0 °F 70% 29.84 in 10.0 mi SSE 16.1 mph 21.9 mph N/A   Clear
8:53 AM 59.0 °F 46.9 °F 64% 29.82 in 10.0 mi SSE 18.4 mph 26.5 mph N/A   Clear
9:53 AM 61.0 °F 48.9 °F 64% 29.83 in 10.0 mi SSE 23.0 mph 32.2 mph N/A   Clear
10:53 AM 63.0 °F 50.0 °F 63% 29.79 in 10.0 mi SSE 23.0 mph 32.2 mph N/A   Clear
11:53 AM 64.9 °F 51.1 °F 61% 29.78 in 10.0 mi South 28.8 mph 36.8 mph N/A   Scattered Clouds
12:53 PM 64.9 °F 52.0 °F 63% 29.78 in 10.0 mi South 25.3 mph 35.7 mph N/A   Mostly Cloudy
1:53 PM 62.1 °F 55.9 °F 80% 29.75 in 8.0 mi SSE 20.7 mph - 0.04 in Rain Light Rain
2:40 PM 53.6 °F 51.8 °F 94% 29.78 in 1.8 mi NNW 12.7 mph 20.7 mph 0.09 in Rain Heavy Rain
2:44 PM 51.8 °F 51.8 °F 100% 29.78 in 2.0 mi NW 20.7 mph - 0.11 in Rain Heavy Rain
2:49 PM 51.8 °F 50.0 °F 94% 29.78 in 3.0 mi NNW 17.3 mph 23.0 mph 0.12 in Rain Heavy Rain
2:53 PM 52.0 °F 51.1 °F 97% 29.78 in 4.0 mi NNW 17.3 mph - 0.13 in Rain Rain
3:13 PM 51.8 °F 50.0 °F 94% 29.81 in 6.0 mi NW 15.0 mph - 0.02 in Rain Rain
3:41 PM 51.8 °F 51.8 °F 100% 29.79 in 10.0 mi NNW 13.8 mph - 0.04 in Rain Light Rain
3:53 PM 52.0 °F 50.0 °F 93% 29.81 in 10.0 mi NNW 12.7 mph - 0.05 in Rain Light Rain
4:13 PM 51.8 °F 50.0 °F 94% 29.83 in 2.5 mi NW 9.2 mph - 0.03 in Rain Heavy Rain
4:31 PM 51.8 °F 51.8 °F 100% 29.80 in 5.0 mi North 5.8 mph - 0.18 in Rain Rain
4:53 PM 52.0 °F 50.0 °F 93% 29.78 in 10.0 mi East 8.1 mph - 0.20 in Rain Light Rain
5:53 PM 52.0 °F 50.0 °F 93% 29.78 in 9.0 mi ESE 8.1 mph - N/A Rain Light Rain
6:09 PM 51.8 °F 51.8 °F 100% 29.76 in 10.0 mi ESE 8.1 mph - N/A Rain Light Rain
6:18 PM 51.8 °F 51.8 °F 100% 29.77 in 10.0 mi ESE 8.1 mph - N/A   Mostly Cloudy
6:45 PM 51.8 °F 50.0 °F 94% 29.79 in 10.0 mi SE 6.9 mph - N/A   Overcast
6:53 PM 52.0 °F 50.0 °F 93% 29.80 in 10.0 mi SE 5.8 mph - N/A   Overcast
7:53 PM 52.0 °F 51.1 °F 97% 29.81 in 10.0 mi SSW 4.6 mph - 0.02 in   Overcast
8:14 PM 51.8 °F 50.0 °F 94% 29.80 in 10.0 mi South 6.9 mph - N/A   Overcast
8:48 PM 51.8 °F 50.0 °F 94% 29.82 in 10.0 mi South 6.9 mph - N/A   Overcast
8:53 PM 51.1 °F 50.0 °F 96% 29.82 in 10.0 mi South 5.8 mph - N/A   Overcast
9:53 PM 52.0 °F 50.0 °F 93% 29.81 in 10.0 mi South 10.4 mph - N/A   Overcast
9:58 PM 51.8 °F 50.0 °F 94% 29.81 in 10.0 mi South 10.4 mph - N/A   Overcast
10:36 PM 51.8 °F 50.0 °F 94% 29.82 in 10.0 mi South 6.9 mph - N/A   Overcast
10:53 PM 51.1 °F 50.0 °F 96% 29.81 in 10.0 mi South 10.4 mph - N/A   Mostly Cloudy
11:04 PM 51.8 °F 50.0 °F 94% 29.82 in 10.0 mi SSW 10.4 mph - N/A   Overcast
11:37 PM 51.8 °F 50.0 °F 94% 29.82 in 10.0 mi WSW 11.5 mph - N/A   Overcast
11:45 PM 51.8 °F 48.2 °F 88% 29.82 in 10.0 mi West 16.1 mph 21.9 mph N/A   Overcast
11:53 PM 51.1 °F 46.0 °F 83% 29.81 in 10.0 mi WNW 18.4 mph 25.3 mph N/A   Overcast
12:01 AM 50.0 °F 42.8 °F 76% 29.82 in 10.0 mi WNW 13.8 mph - N/A   Overcast
12:53 AM 48.9 °F 44.1 °F 83% 29.83 in 10.0 mi West 9.2 mph - N/A   Overcast